TimeEDT,TemperatureF,Dew PointF,Humidity,Sea Level PressureIn,VisibilityMPH,Wind Direction,Wind SpeedMPH,Gust SpeedMPH,PrecipitationIn,Events,Conditions,WindDirDegrees,DateUTC
2:53 AM,50.0,44.1,80,30.06,10.0,Calm,Calm,-,N/A,,Clear,0,2012-10-23 06:53:00
3:53 AM,50.0,44.1,80,30.07,10.0,WNW,3.5,-,N/A,,Clear,300,2012-10-23 07:53:00
4:53 AM,50.0,44.1,80,30.07,10.0,Calm,Calm,-,N/A,,Clear,0,2012-10-23 08:53:00
5:53 AM,50.0,44.1,80,30.09,10.0,Calm,Calm,-,N/A,,Clear,0,2012-10-23 09:53:00
6:53 AM,48.9,44.1,83,30.10,10.0,Calm,Calm,-,N/A,,Clear,0,2012-10-23 10:53:00
8:53 AM,55.0,46.9,74,30.13,10.0,Calm,Calm,-,N/A,,Clear,0,2012-10-23 12:53:00
9:53 AM,61.0,48.9,64,30.12,10.0,Calm,Calm,-,N/A,,Clear,0,2012-10-23 13:53:00
10:53 AM,64.0,46.9,54,30.12,10.0,Calm,Calm,-,N/A,,Mostly Cloudy,0,2012-10-23 14:53:00
11:53 AM,64.9,45.0,48,30.12,10.0,West,4.6,-,N/A,,Mostly Cloudy,270,2012-10-23 15:53:00
12:53 PM,64.9,46.0,50,30.10,10.0,SSW,5.8,-,N/A,,Scattered Clouds,200,2012-10-23 16:53:00
1:53 PM,64.0,46.9,54,30.08,10.0,South,4.6,-,N/A,,Overcast,190,2012-10-23 17:53:00
2:53 PM,62.1,54.0,75,30.09,10.0,North,6.9,-,0.00,,Overcast,10,2012-10-23 18:53:00
4:53 PM,59.0,51.1,75,30.08,10.0,Calm,Calm,-,N/A,,Overcast,0,2012-10-23 20:53:00
5:53 PM,59.0,50.0,72,30.09,10.0,Calm,Calm,-,N/A,,Clear,0,2012-10-23 21:53:00
6:53 PM,57.9,53.1,84,30.09,10.0,Calm,Calm,-,N/A,,Overcast,0,2012-10-23 22:53:00
7:53 PM,57.9,52.0,81,30.09,10.0,Calm,Calm,-,N/A,,Mostly Cloudy,0,2012-10-23 23:53:00
8:53 PM,57.0,54.0,89,30.10,10.0,Calm,Calm,-,0.00,,Overcast,0,2012-10-24 00:53:00
9:53 PM,57.0,54.0,89,30.11,10.0,North,5.8,-,0.00,Rain,Light Rain,10,2012-10-24 01:53:00
10:53 PM,55.9,55.0,97,30.10,10.0,Calm,Calm,-,0.01,,Overcast,0,2012-10-24 02:53:00
11:53 PM,55.9,54.0,93,30.09,10.0,ENE,3.5,-,N/A,,Overcast,60,2012-10-24 03:53:00